Location: Unnamed
(48.6007°N, 2.4808°E)
Time: 14:51:15
(UTC+02:00)

SEEDS - Visible Passes

Search period start: 02 April 2023 00:00
Search period end: 12 April 2023 00:00
Orbit: 573 x 588 km, 97.6° (Epoch: 01 April)

Date Brightness Start Highest point End Pass type
(mag) Time Alt. Az. Time Alt. Az. Time Alt. Az.
02 Apr ? 04:57:35 10° NE 05:00:46 21° E 05:03:55 10° SE visible
02 Apr ? 06:32:20 10° N 06:36:18 42° WNW 06:40:13 10° SW visible
03 Apr ? 05:02:28 10° NE 05:05:50 23° E 05:09:10 10° SSE visible
03 Apr ? 06:37:24 10° N 06:41:17 38° WNW 06:45:08 10° SW visible
04 Apr ? 05:07:20 10° NE 05:10:52 26° E 05:14:22 10° SSE visible
04 Apr ? 06:42:28 10° N 06:46:15 34° WNW 06:50:01 10° SW visible
05 Apr ? 05:12:14 10° NE 05:15:53 29° E 05:19:31 10° SSE visible
06 Apr ? 05:17:07 10° NNE 05:20:54 32° E 05:24:38 10° SSE visible
07 Apr ? 05:21:59 10° NNE 05:25:52 36° E 05:29:42 10° SSE visible
08 Apr ? 05:26:52 10° NNE 05:30:49 40° E 05:34:45 10° SSE visible
09 Apr ? 05:31:44 10° NNE 05:35:46 45° E 05:39:45 10° S visible
10 Apr ? 05:36:36 10° NNE 05:40:41 51° E 05:44:44 10° S visible
11 Apr ? 05:41:27 10° NNE 05:45:35 58° E 05:49:40 10° S visible
